Regional Weather Roundup
Issued by NWS State College, PA

Home | Current Version | Previous Version | Text Only | Print | Product List | Glossary Off
Versions: 1 2 3 4 5 6 7 8 9 10 11 12 13 14 15 16 17 18 19 20 21 22 23 24 25 26 27 28 29 30 31 32 33 34 35 36 37 38 39 40 41 42 43 44 45 46 47 48 49 50

000
ASUS41 KCTP 311810
RWRCTP

REGIONAL WEATHER ROUNDUP
NATIONAL WEATHER SERVICE STATE COLLEGE PA
200 PM EDT THU JUL 31 2014

Note: "fair" indicates few or no clouds below 12,000 feet with no
significant weather and/or obstructions to visibility.

* = STATION THAT DOES NOT REPORT PRECIPITATION /E.G. RAIN...SNOW...ETC/
    THUNDER OR FOG.

PAZ002>004-007>009-013>016-020>023-029>032-311900-
WESTERN PENNSYLVANIA

CITY           SKY/WX    TMP DP  RH WIND       PRES   REMARKS
ERIE           SUNNY     73  54  51 W14G21    30.06R
MEADVILLE      SUNNY     72  54  53 W9        30.09R
FRANKLIN*      PTSUNNY   72  55  56 SW12      30.11S
NEW CASTLE     MOCLDY    74  60  61 CALM      30.10S
BEAVER COUNTY  MOSUNNY   75  61  60 SW8       30.10S
BUTLER*        SUNNY     75  61  60 SW5       30.12S
PITTSBURGH INT PTSUNNY   74  60  61 W14       30.09F
PITTSBURGH     MOSUNNY   74  58  57 W14       30.10S
INDIANA*       MOSUNNY   73  61  64 W9        30.15F
LATROBE        PTSUNNY   73  63  68 SW14      30.12S
WASHINGTON CO* MOSUNNY   75  61  60 SW8       30.11F
$$

PAZ004>006-010>012-017>019-024>028-033>037-041-042-045-046-049>053-311900-
CENTRAL PENNSYLVANIA

CITY           SKY/WX    TMP DP  RH WIND       PRES   REMARKS
BRADFORD       PTSUNNY   70  51  51 SW10G20   30.10S
DUBOIS         MOSUNNY   69  59  70 SW8       30.11S
CLEARFIELD     PTSUNNY   70  60  70 SW9       30.13R
JOHNSTOWN      PTSUNNY   70  56  61 W9        30.14S
ALTOONA        MOSUNNY   75  59  57 VRB7      30.12F
STATE COLLEGE  PTSUNNY   72  63  73 W8        30.11S
WILLIAMSPORT   MOSUNNY   71  61  70 CALM      30.09F
SELINSGROVE    PTSUNNY   74  64  71 CALM      30.09F
FT INDIANTOWN  SUNNY     81  60  48 SW12      30.09S
CAPITAL CITY   MOSUNNY   79  60  52 SW5       30.08F
HARRISBURG     MOSUNNY   81  60  48 CALM      30.07F
YORK           MOSUNNY   80  60  50 S8        30.09F
$$

PAZ038>040-043-044-047-048-054-055-060>062-067>071-311900-
EASTERN PENNSYLVANIA

CITY           SKY/WX    TMP DP  RH WIND       PRES   REMARKS
SCRANTON       MOSUNNY   79  55  43 SW8G21    30.08F
MOUNT POCONO   MOSUNNY   74  54  49 W10       30.13S
ALLENTOWN      MOSUNNY   81  57  43 SW12G21   30.08F
QUAKERTOWN*    CLEAR     81  59  47 SW8       30.10F
READING        PTSUNNY   82  58  43 SW10      30.08S
LANCASTER      MOSUNNY   80  59  48 W9        30.09F
COATESVILLE    PTCLDY    81  63  54 W5        30.11F
POTTSTOWN      MOSUNNY   80  60  50 SW8       30.11S
BLUE BELL      PTSUNNY   81  63  54 W6        30.08F
DOYLESTOWN     MOSUNNY   81  58  45 SW10G18   30.09S
WILLOW GROVE   NOT AVBL
NORTH PHILA    PTSUNNY   84  58  40 W16       30.09F
PHILADELPHIA   MOSUNNY   82  62  50 W13       30.09F
$$


USA.gov is the U.S. government's official web portal to all federal, state and local government web resources and services.